Date,TemperatureHighF,TemperatureAvgF,TemperatureLowF,DewpointHighF,DewpointAvgF,DewpointLowF,HumidityHigh,HumidityAvg,HumidityLow,PressureMaxIn,PressureMinIn,WindSpeedMaxMPH,WindSpeedAvgMPH,GustSpeedMaxMPH,PrecipitationSumIn
2013-2-1,28.5,22.6,14.2,23.6,13.7,6.2,91,69,56,30.39,29.83,28,3,28,0.05
2013-2-2,24.7,18.1,9.5,22.7,13.0,4.8,93,80,66,30.40,30.02,12,1,12,0.00
2013-2-3,30.8,25.8,19.4,27.7,23.2,17.7,95,90,73,30.03,29.83,19,1,19,0.02
2013-2-4,33.6,27.7,20.9,26.1,18.9,13.0,85,70,59,30.10,29.89,17,2,19,0.00
2013-2-5,36.4,31.8,28.0,32.8,28.9,25.8,96,89,83,29.94,29.85,6,0,6,0.01
2013-2-6,42.4,32.9,25.6,32.5,27.8,20.7,96,82,66,30.36,29.93,18,1,18,0.01
2013-2-7,36.2,30.3,23.1,28.3,23.9,19.5,89,77,67,30.45,30.20,16,2,16,0.01
2013-2-8,40.2,34.6,30.8,38.3,31.7,24.1,96,89,76,30.20,29.78,27,3,27,0.05
2013-2-9,40.7,30.5,23.6,26.1,21.0,17.0,79,68,50,30.41,29.95,27,4,27,0.00
2013-2-10,43.1,31.5,18.6,25.6,20.4,13.5,85,65,45,30.49,30.21,23,3,23,0.00
2013-2-11,51.9,41.2,33.9,48.4,37.8,25.6,98,89,51,30.22,29.69,25,3,25,0.27
2013-2-12,54.9,43.8,31.3,38.7,32.5,27.3,85,65,50,29.99,29.82,25,2,25,0.00
2013-2-13,40.9,33.5,26.4,33.1,29.1,24.1,96,84,68,29.96,29.67,14,0,14,0.02
2013-2-14,44.9,34.9,30.9,34.4,30.2,27.4,96,84,65,30.01,29.78,7,0,7,0.14
2013-2-15,54.7,38.7,27.6,41.3,33.3,25.0,96,82,56,30.04,29.92,16,1,16,0.16
2013-2-16,39.2,31.8,26.2,33.9,27.6,19.5,97,85,68,30.00,29.86,18,1,18,0.00
2013-2-17,30.0,24.0,19.0,20.0,15.4,10.1,83,70,55,30.22,29.86,26,4,26,0.00
2013-2-18,40.2,28.8,16.7,20.7,14.9,8.5,73,57,43,30.38,30.14,20,3,20,0.00
2013-2-19,45.0,36.2,28.9,40.8,29.4,20.0,93,77,54,30.14,29.69,26,3,26,0.12
2013-2-20,34.9,27.9,22.5,24.7,17.7,12.0,73,65,57,30.17,29.85,28,5,28,0.00
2013-2-21,38.7,27.1,21.4,24.6,17.6,13.0,83,67,53,30.35,30.13,22,3,22,0.00
2013-2-22,30.5,27.9,22.6,28.2,23.3,17.9,91,83,72,30.39,30.20,19,2,19,0.01
2013-2-23,46.9,36.9,30.5,43.3,35.1,28.2,97,93,86,30.21,29.82,11,1,11,0.01
2013-2-24,49.2,37.5,27.0,38.2,31.1,21.3,97,79,53,30.13,29.79,23,2,23,0.00
2013-2-25,45.7,34.2,22.7,32.1,25.4,18.8,87,71,53,30.22,30.11,12,1,12,0.00
2013-2-26,39.8,35.7,30.3,38.6,31.3,23.9,96,84,69,30.22,29.61,28,5,28,1.09
2013-2-27,55.2,43.4,35.3,46.8,38.3,34.3,98,83,59,29.69,29.53,31,2,31,0.04
2013-2-28,43.7,38.2,30.2,36.4,32.0,26.8,90,78,65,29.73,29.63,15,2,15,0.01